Showing default

PE2_FLT1 (TYVAK-0261), 59105

Orbit data source: Space-Track

PE2_FLT1 (TYVAK-0261), 59105 is a payload satellite owned by Tyvak NSS (US) in SSO that was launched on Mon, 04 Mar 2024 UTC via an FALCON 9 launch vehicle from the Air Force Western Test Range (AFWTR). Payload-class satellites include a variety of spacecraft equipped with specific instruments for various scientific and technological missions. These include communications satellites like Starlink; space stations such as the ISS; scientific satellites like the Hubble; Earth observation satellites from companies like Planet Labs, Umbra, and HawkEye 360; GPS; miniature CubeSats for education and research; and military/defense satellites.

Loading next visibility...
Identifier
59105, 2024-043H
Orbit
SSO
Country
Flag of USUS
Related business
Manufacturer
Tyvak NSS
Mission
Operational Commercial Technology
Bus & Motor
CUBESAT 12U, Unknown motor
Mass
26 kg wet, 26 kg dry
Launch date (UTC)
2024-03-04 (2 years ago)
Launch vehicle
FALCON 9
Launch site
Air Force Western Test Range (AFWTR)
Object type
Payload
Rocket body
Debris
Shape & HBR
Box + 2 Pan, 0.7 m
Radar Cross Section
0.149 m², Medium (>0.1 m² and < 1m²)

Expand to show TLE details & history
Last TLE update: 16 hours ago

TLE from 16 hours ago
0 PE2_FLT1 (TYVAK-0261)
1 59105U 24043H   26235.34775146  .00001547  00000-0  13792-3 0  9990
2 59105  97.8454   6.2133 0006151 164.4995 195.6416 14.97472391134709
Epoch: 2026-08-23T08:20Z
TLE epoch observation values (Epoch: 2026-08-23T08:20:45.726Z)
Latitude
-0.00001°
Longitude
-90.62233°
Altitude
581.876 km
Speed
7.567 km/s
True Right ascension
00h 24m 51s
True Declination
0° 00' 00"
Sunlit
Object was in full shadow at epoch
Visualization orbit readout
Latitude
Unknown
Longitude
Unknown
Altitude
Unknown
Speed
Unknown
Apparent Right ascension
Unknown
Apparent Declination
Unknown
Sunlit
N/A
Visualization observer readout
Local Sidereal Time
15:55:38
Azimuth
Unknown
Elevation
Unknown
Doppler factor
Unknown
Orbital elements
Apogee altitude
575.999 km
Perigee altitude
567.449 km
Semi-major axis
6,949.861 km
Eccentricity
0.00062
Inclination
97.8454°
RAAN
6.2133°
Arg. of periapsis
164.4995°
True anomaly
195.62261°
Mean anomaly
195.6416°
Eccentric anomaly
195.6321°
Mean motion
3.7461 °/min
Orbital period
96.1 mins
BSTAR
0.00013792
Loading maneuver chart data...
Computing Atmospheric mass density...

Documentation

Showing up to 5 results
|